Change the Weather History Date:

Wednesday, December 14, 2011

  Actual Average Record
Temperature  
Mean Temperature 80 °F 79 °F  
Max Temperature 84 °F 84 °F 90 °F (1992)
Min Temperature 75 °F 74 °F 64 °F (1949)
Degree Days  
Heating Degree Days 0 0  
Month to date heating degree days 0 0  
Since 1 July heating degree days 0 0  
Cooling Degree Days 15 14  
Month to date cooling degree days 193 196  
Year to date cooling degree days 5409 5622  
Growing Degree Days 28 (Base 50)    
Moisture  
Dew Point 71 °F    
Average Humidity 78    
Maximum Humidity 87    
Minimum Humidity 69    
Precipitation  
Precipitation T in 0.16 in 8.84 in (1910)
Month to date precipitation 6.44 2.37  
Year to date precipitation 86.40 53.70  
Snow  
Snow 0.00 in - - ()
Month to date snowfall 0.0  
Since 1 July snowfall 0.0  
Snow Depth 0.00 in    
Sea Level Pressure  
Sea Level Pressure 29.90 in    
Wind  
Wind Speed 5 mph (NNW)    
Max Wind Speed 15 mph    
Max Gust Speed 20 mph    
Visibility 10 miles    
Events      
T = Trace of Precipitation, MM = Missing Value Source: NWS Daily Summary

Daily Weather History Graph

Daily Weather History Graph

Search for Another Location

Airport or City:

Trip Planner

Search our weather history database for the weather conditions in past years. The results will help you decide how hot, cold, wet, or windy it might be!

Date:

Astronomy

Dec. 14, 2011 Rise Set
Actual Time 6:47 AM AST 5:49 PM AST
Civil Twilight 6:23 AM AST 6:13 PM AST
Nautical Twilight 5:56 AM AST 6:40 PM AST
Astronomical Twilight 5:29 AM AST 7:07 PM AST
Moon 9:40 PM AST (12/14) 9:50 AM AST (12/14)
Length of Visible Light 11h 49m
Length of Day
11h 02m
Waning Gibbous, 84% of the Moon is Illuminated
Dec 14
Waning Gibbous
Dec 17
Last Quarter
Dec 24
New
Jan 1
First Quarter
Jan 9
Full

Hourly Weather History & Observations

Time (AST) Temp. Heat Index Dew Point Humidity Pressure Visibility Wind Dir Wind Speed Gust Speed Precip Events Conditions
12:56 AM 77.0 °F - 70.0 °F 79% 29.92 in 10.0 mi SW 3.5 mph - N/A   Scattered Clouds
1:56 AM 75.9 °F - 71.1 °F 85% 29.91 in 10.0 mi Calm Calm - 0.00 in   Scattered Clouds
2:56 AM 75.9 °F - 70.0 °F 82% 29.89 in 10.0 mi SSW 3.5 mph - N/A   Scattered Clouds
3:56 AM 75.9 °F - 70.0 °F 82% 29.88 in 10.0 mi WSW 3.5 mph - N/A   Scattered Clouds
4:56 AM 75.9 °F - 70.0 °F 82% 29.88 in 10.0 mi Calm Calm - N/A   Partly Cloudy
5:56 AM 75.0 °F - 69.1 °F 82% 29.88 in 10.0 mi WSW 3.5 mph - N/A   Scattered Clouds
6:56 AM 75.0 °F - 69.1 °F 82% 29.89 in 10.0 mi Calm Calm - N/A   Scattered Clouds
7:56 AM 77.0 °F - 69.1 °F 76% 29.91 in 10.0 mi WSW 4.6 mph - N/A   Scattered Clouds
8:56 AM 80.1 °F 83.2 °F 70.0 °F 71% 29.93 in 10.0 mi WSW 3.5 mph - N/A   Scattered Clouds
9:56 AM 81.0 °F 85.2 °F 72.0 °F 74% 29.94 in 10.0 mi Calm Calm - N/A   Scattered Clouds
10:56 AM 82.0 °F 86.7 °F 72.0 °F 71% 29.94 in 10.0 mi Variable 5.8 mph - N/A   Scattered Clouds
11:56 AM 82.9 °F 87.5 °F 71.1 °F 67% 29.92 in 10.0 mi North 6.9 mph - N/A   Scattered Clouds
12:56 PM 82.9 °F 87.5 °F 71.1 °F 67% 29.90 in 10.0 mi North 6.9 mph - N/A   Scattered Clouds
1:56 PM 82.0 °F 86.3 °F 71.1 °F 69% 29.88 in 10.0 mi North 6.9 mph - N/A   Scattered Clouds
2:56 PM 82.9 °F 88.0 °F 72.0 °F 69% 29.87 in 10.0 mi NNW 6.9 mph - N/A   Scattered Clouds
3:56 PM 82.0 °F 86.3 °F 71.1 °F 69% 29.87 in 10.0 mi North 6.9 mph - N/A   Scattered Clouds
4:56 PM 81.0 °F 84.1 °F 69.1 °F 67% 29.87 in 10.0 mi North 6.9 mph - N/A   Scattered Clouds
5:56 PM 80.1 °F 83.2 °F 70.0 °F 71% 29.88 in 10.0 mi North 6.9 mph - N/A   Scattered Clouds
6:56 PM 80.1 °F 83.6 °F 71.1 °F 74% 29.89 in 10.0 mi NNE 8.1 mph - N/A   Scattered Clouds
7:56 PM 79.0 °F - 69.1 °F 72% 29.90 in 10.0 mi NNE 8.1 mph - N/A   Scattered Clouds
8:56 PM 79.0 °F - 70.0 °F 74% 29.92 in 10.0 mi NE 6.9 mph - N/A   Scattered Clouds
9:56 PM 79.0 °F - 70.0 °F 74% 29.93 in 10.0 mi NE 5.8 mph - 0.00 in   Scattered Clouds
10:56 PM 79.0 °F - 72.0 °F 79% 29.94 in 10.0 mi North 10.4 mph - N/A   Scattered Clouds
11:56 PM 79.0 °F - 72.0 °F 79% 29.93 in 10.0 mi NNE 15.0 mph 19.6 mph N/A   Scattered Clouds